Regional Weather Roundup
Issued by NWS

Home | Current Version | Previous Version | Graphics & Text | Print | Product List | Glossary On
Versions: 1 2 3 4 5 6 7 8 9 10 11 12 13 14 15 16 17 18 19 20 21 22 23 24 25 26 27 28 29 30 31 32 33 34 35 36 37 38 39 40 41 42 43 44 45 46 47 48 49 50
000
ASUS43 KMPX 251310
RWRMN
WEATHER ROUNDUP FOR MINNESOTA
NATIONAL WEATHER SERVICE TWIN CITIES/CHANHASSEN MN
800 AM CDT TUE JUL 25 2017


NOTE: "FAIR" INDICATES FEW OR NO CLOUDS BELOW 12,000 FEET WITH NO
SIGNIFICANT WEATHER AND/OR OBSTRUCTIONS TO VISIBILITY. N/A MEANS
CURRENT SKY AND/OR WEATHER CONDITIONS ARE NOT AVAILABLE.

MNZ060>063-068>070-251400-
   Twin Cities Metro

CITY           SKY/WX    TMP DP  RH WIND       PRES   REMARKS
TWIN CITIES    CLOUDY    68  62  81 SE8       30.03F
ST PAUL        CLOUDY    68  63  84 SE14      30.04F
CRYSTAL        CLOUDY    68  60  75 SE14      29.98F
BLAINE         LGT RAIN  68  63  83 SE14      29.99F
LAKEVILLE      CLOUDY    64  64 100 S8        30.03S
EDEN PRAIRIE   CLOUDY    69  64  84 S9        30.02S
SOUTH ST PAUL  CLOUDY    68  61  80 SE7       30.04F
LAKE ELMO      FAIR      66  63  88 SE5       30.07S
$$
MNZ001>005-007-008-013>017-022>024-027-028-251400-
   Northwest Minnesota

CITY           SKY/WX    TMP DP  RH WIND       PRES   REMARKS
BEMIDJI        CLOUDY    65  62  89 S8        29.93F
HALLOCK        CLOUDY    68  64  88 SW7       29.85S
ROSEAU         CLOUDY    66  61  82 S5        29.88R
WARROAD        CLOUDY    68  64  88 SW3       29.90R
THIEF RVR FALL PTSUNNY   67  64  90 S7        29.91R
CROOKSTON      PTSUNNY   68  64  88 SW5       29.90R
FOSSTON        MOSUNNY   68  63  83 SE8       29.91S
DETROIT LAKES  SUNNY     68  63  83 SE8       29.93R
MOORHEAD       PTSUNNY   70  64  83 S10       29.89S
PARK RAPIDS    CLOUDY    68  63  84 SE12      29.94R
MAHNOMEN       FAIR      68  63  84 S9        29.90S
$$
MNZ006-009>011-018-025>026-251400-
   North Central Minnesota

CITY           SKY/WX    TMP DP  RH WIND       PRES   REMARKS
BAUDETTE       CLOUDY    64  62  93 S10       29.92R
FLAG ISLAND    CLOUDY    68  64  88 S9        29.88S
INTL FALLS     CLOUDY    64  59  83 VRB6      29.96R
WASKISH        MOSUNNY   64  63  94 S3        29.93S
BIG FORK       CLOUDY    64  61  88 S5        29.96F
LONGVILLE      SUNNY     68  63  83 S12       29.95F
GRAND RAPIDS   PTSUNNY   62  60  93 SE8       29.99F
CRANE LAKE     PTSUNNY   63  61  94 S7        30.00S
ORR            PTSUNNY   63  57  82 S8        29.97S
COOK           CLOUDY    64  61  88 S8        30.00F
WALKER         CLOUDY    66  62  86 S9        29.95R
$$
MNZ012-019>021-037-251400-
   Northeast Minnesota

CITY           SKY/WX    TMP DP  RH WIND       PRES   REMARKS
DULUTH         CLOUDY    63  60  90 SE12      30.04S
ELY            MOSUNNY   64  57  77 S9        30.03S
HIBBING        CLOUDY    62  60  93 SE7       30.00F
EVELETH        MOSUNNY   63  58  84 SE8       30.03S
DULUTH HARBOR  CLOUDY    64  61  88 CALM      30.04S
TWO HARBORS    MOSUNNY   63  57  82 NE5       30.05R
SILVER BAY     MOSUNNY   63  57  82 CALM      30.05S
GRAND MARAIS     N/A     57  52  83 NE5       30.08S
G MARAIS ARPRT SUNNY     61  52  72 S5        30.10F
$$
MNZ029>031-032-039>041-046>048-054>057-064-251400-
   West Central Minnesota

CITY           SKY/WX    TMP DP  RH WIND       PRES   REMARKS
FERGUS FALLS   SUNNY     70  64  83 S10G18    29.89R
WHEATON        SUNNY     70  64  83 SE9       29.88R
MORRIS         SUNNY     70  66  88 S15       29.88F
ALEXANDRIA     PTSUNNY   69  65  86 S16       29.93F
ELBOW LAKE     FAIR      68  65  88 SE17      29.90R
WADENA         MOSUNNY   66  64  94 SE10      29.92S
GLENWOOD       SUNNY     68  64  88 SE14      29.93F
APPLETON       SUNNY     72  64  78 SE12G20   29.88S
BENSON         SUNNY     70  64  83 S13       29.92S
ORTONVILLE     SUNNY     70  64  83 MISG      29.87S
MADISON        SUNNY     72  66  83 SE13      29.88F
WILLMAR        FAIR      70  66  88 S12G20    29.95S
$$
MNZ033>034-036-042>043-049>051-058-059-251400-
   Central Minnesota

CITY           SKY/WX    TMP DP  RH WIND       PRES   REMARKS
ST CLOUD       CLOUDY    67  65  93 SE8       29.97F
SAUK CENTRE    CLOUDY    68  64  88 SE14      29.95S
PAYNESVILLE    PTSUNNY   68  64  88 SE13G18   29.96R
AITKIN         SUNNY     70  63  78 SE12G17   29.97S
PINE RIVER     CLOUDY    66  63  88 S10       29.99S
BRAINERD       PTSUNNY   67  62  84 S9        29.96F
STAPLES        CLOUDY    66  63  88 SE9       29.94R
LONG PRAIRIE   CLOUDY    66  63  88 E12       29.95S
LITTLE FALLS   CLOUDY    64  61  88 SE10      29.96F
LITCHFIELD     MOSUNNY   70  66  88 SE12G18   29.96S
BUFFALO        CLOUDY    67  62  82 SE10G21   29.99F
MAPLE LAKE     CLOUDY    68  65  91 SE10G17   29.98F
HUTCHINSON     CLOUDY    68  65  90 SE13G24   29.97F
$$
MNZ037-044-045-052-053-251400-
   East Central Minnesota

CITY           SKY/WX    TMP DP  RH WIND       PRES   REMARKS
PRINCETON      PTSUNNY   68  63  83 SE8       29.99S
MORA           LGT RAIN  63  61  94 S8        30.02F
CAMBRIDGE      CLOUDY    68  59  73 SE8       29.99F
RUSH CITY      RAIN      64  61  91 SE10G17   30.02F
MOOSE LAKE     CLOUDY    63  59  88 CALM      30.00F
HINCKLEY       FAIR      66  63  88 S8        30.02F
CLOQUET        CLOUDY    64  59  82 SE5       30.03F
MCGREGOR       SUNNY     66  61  82 S12G17    30.01R
$$
MNZ071>073-080-081-089-090-097-098-251400-
   Southwest Minnesota

CITY           SKY/WX    TMP DP  RH WIND       PRES   REMARKS
MONTEVIDEO     SUNNY     72  66  83 S14G20    29.90F
GRANITE FALLS  SUNNY     70  66  85 SE15      29.93S
CANBY          SUNNY     70  65  85 CALM      29.90S
MARSHALL       MOSUNNY   72  65  78 S17G23    29.91R HAZE
REDWOOD FALLS  CLOUDY    68  64  87 SE14      29.93R
OLIVIA         PTSUNNY   70  66  88 SE13      29.93S
PIPESTONE      SUNNY     72  64  78 S18G25    29.93F
WINDOM         PTSUNNY   68  64  88 SE14      29.98S
WORTHINGTON    CLOUDY    68  64  87 S16       29.98R
JACKSON        SUNNY     68  63  83 S13G22    30.00S
TRACY          MOSUNNY   70  66  86 S17G29    29.92S
SLAYTON        PTSUNNY   68  64  85 S16       29.96R HAZE
$$
MNZ065>067-074>077-082>085-091>093-251400-
   South Central Minnesota

CITY           SKY/WX    TMP DP  RH WIND       PRES   REMARKS
MANKATO        CLOUDY    67  63  87 SE13      30.01
NEW ULM        CLOUDY    66  63  88 S16       29.97F
ST JAMES       CLOUDY    66  64  94 SE9       30.00S
FAIRMONT       MOSUNNY   67  64  90 S15G22    30.00F
GLENCOE        CLOUDY    66  65  97 SE12G17   29.97F
FARIBAULT      CLOUDY    63  63 100 SE21G32   30.06S
OWATONNA       CLOUDY    64  61  88 E13       30.07S
WASECA         CLOUDY    64  61  88 SE7       30.06S
ALBERT LEA     CLOUDY    66  63  88 S14G21    30.05F THUNDER
$$
MNZ078>079-086>088-094>096-251400-
   Southeast Minnesota

CITY           SKY/WX    TMP DP  RH WIND       PRES   REMARKS
ROCHESTER      LGT RAIN  62  60  93 S14       30.10F
RED WING       DRIZZLE   68  59  73 S6        30.06R
STANTON        CLOUDY    65  62  87 S15G25    30.04R
DODGE CENTER   RAIN      63  61  94 E8        30.10F
WINONA         CLOUDY    66  59  77 SE8       30.11F
AUSTIN         CLOUDY    63  61  94 SE8       30.08S THUNDER
PRESTON        CLOUDY    62  58  86 SE8       30.13S THUNDER
$$
ABBREVIATIONS USED IN REMARKS
   TC - TEMPERATURES IN CELSIUS
  WCI - WIND CHILL INDEX
   HX - HEAT INDEX
  VSB - VISIBILITY
$$




USA.gov is the U.S. government's official web portal to all federal, state and local government web resources and services.